Track YAOGAN-31 B now! 10-day predictions YAOGAN-31 B is classified as:
1 43276U 18034B 22183.55481724 -.00000090 00000-0 00000-0 0 9990 2 43276 63.4008 207.4330 0145575 3.6362 356.5692 13.45229455207736